Hourly Data Report for September 20, 2017

All times are specified in Local Standard Time (LST). Add 1 hour to adjust for Daylight Saving Time where and when it is observed.

RANKIN INLET A
NUNAVUT

62°48'38.000" N
92°06'53.000" W
32.30 m
2303405
71083
YRT

Download Data

Hourly Data (September 2017)
Hourly Data Report for September 20, 2017
Temp Definition
°C
Dew Point Temp Definition
°C
Rel Hum Definition
%
Wind Dir Definition
10's deg

Wind Spd Definition
km/h
Visibility Definition
km
Stn Press Definition
kPa
Hmdx Definition


Wind Chill Definition


Weather Definition


TIME
00:00 Legend Double Dagger 3.6 3.4 98 9 7 0.4 101.75     Fog
01:00 Legend Double Dagger 2.5 2.3 99 6 8 0.4 101.78     Fog
02:00 Legend Double Dagger 1.8 1.7 99 6 7 2.4 101.83     Fog
03:00 Legend Double Dagger 1.8 1.7 99 7 4 9.7 101.84     Fog
04:00 Legend Double Dagger 1.1 1.0 99 4 7 16.1 101.82     LegendNANA
05:00 Legend Double Dagger 2.0 1.8 99 7 8 24.1 101.85     LegendNANA
06:00 Legend Double Dagger 3.5 2.4 92 9 16 24.1 101.93     Mostly Cloudy
07:00 Legend Double Dagger 3.0 2.8 98 8 17 0.8 101.94     Fog
08:00 Legend Double Dagger 3.0 2.8 99 8 22 1.2 101.93     Fog
09:00 Legend Double Dagger 5.1 4.3 95 7 19 16.1 101.89     Mostly Cloudy
10:00 Legend Double Dagger 5.9 4.2 88 8 18 16.1 101.89     LegendNANA
11:00 Legend Double Dagger 6.3 4.1 86 9 25 16.1 101.88     LegendNANA
12:00 Legend Double Dagger 6.6 4.0 83 10 26 16.1 101.87     Mostly Cloudy
13:00 Legend Double Dagger 6.5 4.0 85 11 27 24.1 101.87     LegendNANA
14:00 Legend Double Dagger 6.0 3.8 86 11 25 24.1 101.84     LegendNANA
15:00 Legend Double Dagger 5.7 3.7 87 11 22 24.1 101.82     Mostly Cloudy
16:00 Legend Double Dagger 5.3 2.7 83 9 27 24.1 101.78     LegendNANA
17:00 Legend Double Dagger 5.0 2.6 84 9 30 16.1 101.76     LegendNANA
18:00 Legend Double Dagger 4.5 2.6 88 9 32 16.1 101.74     Cloudy
19:00 Legend Double Dagger 3.7 2.3 91 8 35 9.7 101.75     Drizzle
20:00 Legend Double Dagger 3.5 1.7 88 9 33 9.7 101.72     Drizzle
21:00 Legend Double Dagger 3.1 1.6 90 9 32 12.9 101.67     Drizzle
22:00 Legend Double Dagger 2.8 1.4 91 8 35 16.1 101.64     Drizzle
23:00 Legend Double Dagger 3.2 1.1 86 8 34 16.1 101.59     Drizzle

Notes on Data Quality.

Legend

  • E = Estimated
  • M = Missing
  • NA = Not Available
  • ‡ = Partner data that is not subject to review by the National Climate Archives
Date modified: